Regional Weather Roundup
Issued by NWS Cleveland, OH

Home | Current Version | Previous Version | Text Only | Print | Product List | Glossary Off
Versions: 1 2 3 4 5 6 7 8 9 10 11 12 13 14 15 16 17 18 19 20 21 22 23 24 25 26 27 28 29 30 31 32 33 34 35 36 37 38 39 40 41 42 43 44 45 46 47 48 49 50

014
ASUS41 KCLE 212110
RWRCLE
OHIO REGIONAL WEATHER ROUNDUP
NATIONAL WEATHER SERVICE CLEVELAND, OH
500 PM EDT SAT APR 21 2018

NOTE: "FAIR" INDICATES FEW OR NO CLOUDS BELOW 12,000 FEET WITH NO
SIGNIFICANT WEATHER AND/OR OBSTRUCTIONS TO VISIBILITY.

OHZ001>008-015>018-024>027-034-035-043-044-212200-
   NORTHWEST OHIO

CITY           SKY/WX    TMP DP  RH WIND       PRES   REMARKS
DEFIANCE       NOT AVBL
FINDLAY        FAIR      56  23  27 NE8       30.38F
TOLEDO EXPRESS FAIR      56  28  34 VRB6      30.40F
TOLEDO EXEC    FAIR      52  17  25 E7        30.42F
LIMA           FAIR      54  25  32 NE7       30.38S
$$

OHZ009>014-019>023-028>033-038-089-212200-
   NORTHEAST OHIO

CITY           SKY/WX    TMP DP  RH WIND       PRES   REMARKS
CLE-HOPKINS    CLOUDY    47  26  44 NE8       30.43F
CLE-LAKEFRONT  FAIR      42  34  73 NE10      30.41F
CUY CO. ARPT   CLOUDY    48  25  40 N9        30.41F
LORAIN-ELYRIA  FAIR      49  15  25 NE10      30.41F
ASHTABULA      FAIR      48  25  40 N8        30.41F
AKRON-CANTON   PTSUNNY   57  17  21 NE5       30.37F
WOOSTER        FAIR      55  21  26 NE3       30.38F
MANSFIELD      FAIR      54  19  25 VRB7      30.37F
YOUNGSTOWN     CLOUDY    56  23  27 NW9       30.36F
$$

OHZ042-051>053-060>062-070>072-077>081-212200-
  SOUTHWEST OHIO

CITY           SKY/WX    TMP DP  RH WIND       PRES   REMARKS
CINC-COVINGTON CLOUDY    62  19  19 NE8       30.31F
CINC-LUNKEN    FAIR      61  29  29 NE8       30.33F
HAMILTON       FAIR      60  27  28 NE8       30.35S
DAYTON         CLOUDY    56  19  23 NE6       30.36F
WRIGHT-PAT AFB FAIR      57  20  23 NE5       30.35F
DAYTON GENERAL FAIR      57  23  26 NE9       30.34F
WILMINGTON     FAIR      55  27  34 NE9       30.34F
$$

OHZ036-037-039>041-045>050-054>059-063>069-073>076-082>088-212200-
  CENTRAL AND SOUTHEAST OHIO

CITY           SKY/WX    TMP DP  RH WIND       PRES   REMARKS
COLUMBUS       CLOUDY    59  22  24 NE8       30.34F
OSU AIRPORT    FAIR      57  21  24 NE6       30.35F
BOLTON FIELD   SUNNY     57  21  24 CALM      30.35F
RICKENBACK AFB FAIR      57  24  27 E3        30.34F
NEWARK         PTSUNNY   58  21  24 CALM      30.34F
MARION         FAIR      53  20  27 NE9       30.38F
LANCASTER      FAIR      57  25  29 N6        30.34F
ZANESVILLE     FAIR      59  21  23 NW3       30.34F
NEW PHILLY     NOT AVBL
$$




USA.gov is the U.S. government's official web portal to all federal, state and local government web resources and services.